Regional Weather Roundup
Issued by NWS

Home | Current Version | Previous Version | Text Only | Print | Product List | Glossary On
Versions: 1 2 3 4 5 6 7 8 9 10 11 12 13 14 15 16 17 18 19 20 21 22 23 24 25 26 27 28 29 30 31 32 33 34 35 36 37 38 39 40 41 42 43 44 45 46 47 48 49 50
000
ASUS43 KLSX 191310
RWRMO

WEATHER SUMMARY FOR MISSOURI
NATIONAL WEATHER SERVICE SPRINGFIELD MO
700 AM CST THU JAN 19 2017

NOTE: "FAIR" INDICATES FEW OR NO CLOUDS BELOW 12,000 FEET WITH NO
       SIGNIFICANT WEATHER AND/OR OBSTRUCTIONS TO VISIBILITY.
       CURRENT SKY AND/OR WEATHER CONDITIONS ARE NOT AVAILABLE FOR
       CHILLICOTHE AND FARMINGTON.

MOZ001>031-035>038-043-044-053-054-191400-
...NORTHERN AND WESTERN MISSOURI...

CITY           SKY/WX    TMP DP  RH WIND       PRES   REMARKS
KANSAS CTY INT FOG       43  40  89 SE9       29.81F VSB 1
KANSAS C DTWN  CLOUDY    45  43  93 SE5       29.82S FOG
LEE`S SUMMIT   CLOUDY    43  43 100 SE10      29.83R FOG
ST JOSEPH      CLOUDY    42  42 100 S7        29.82S FOG
CHILLICOTHE      N/A     40  40 100 SE5       29.85F
KIRKSVILLE     FOG       36  36 100 SE8       29.87F VSB 3/4 WCI  30

$$
MOZ066>068-077>081-088>096-101>105-191400-
...SOUTHWEST MISSOURI...

CITY           SKY/WX    TMP DP  RH WIND       PRES   REMARKS
SPRINGFIELD    LGT RAIN  44  43  96 S7        29.85S FOG
JOPLIN         FOG       47  47 100 S3        29.85S VSB 3/4
BRANSON        FOG       41  41 100 SE5       29.88R VSB 1/16

$$
MOZ032>034-039>042-045>050-055>058-069>072-191400-
...CENTRAL MISSOURI...

CITY           SKY/WX    TMP DP  RH WIND       PRES   REMARKS
COLUMBIA       CLOUDY    43  42  97 SE6       29.87F
JEFFERSON CITY CLOUDY    44  42  93 SE6       29.89S
ROLLA          FOG       42  42 100 SE5       29.87S VSB 1/2
SEDALIA        CLOUDY    45  44  97 SE7       29.86F FOG
WHITEMAN AFB   CLOUDY    45  45 100 S6        29.83F FOG
WARRENSBURG    FOG       43  43 100 SE5       29.84S VSB 3/4
OSAGE BEACH    CLOUDY    43  42  97 E5        29.88F

$$
MOZ051-052-059>065-191400-
...EAST CENTRAL MISSOURI...

CITY           SKY/WX    TMP DP  RH WIND       PRES   REMARKS
ST LOUIS INTL  DRIZZLE   43  40  89 SE8       29.93S FOG
SPIRIT OF STL  LGT RAIN  43  43 100 CALM      29.93S FOG
ST CHARLES     CLOUDY    42  41  96 SE10      29.93S FOG

$$
MOZ072>076-082>087-097>100-106>115-191400-
...SOUTH CENTRAL AND SOUTHEAST MISSOURI...

CITY           SKY/WX    TMP DP  RH WIND       PRES   REMARKS
CAPE GIRARDEAU CLOUDY    45  43  93 NE5       29.92F FOG
FARMINGTON     RAIN      42  42 100 SE6       29.92F FOG
POPLAR BLUFF   LGT RAIN  45  45 100 CALM      29.92S FOG
WEST PLAINS    CLOUDY    43  42  97 E3        29.88F

$$



USA.gov is the U.S. government's official web portal to all federal, state and local government web resources and services.